DECAYED

STARLINK-35238, 65841 (Decayed)

Orbit data source: Space-Track

STARLINK-35238, 65841 was a payload satellite owned by SpaceX/Seattle (US) in LEO that was launched on Mon, 29 Sep 2025 UTC via an FALCON 9 launch vehicle from the Air Force Western Test Range (AFWTR). Payload-class satellites include a variety of spacecraft equipped with specific instruments for various scientific and technological missions. These include communications satellites like Starlink; space stations such as the ISS; scientific satellites like the Hubble; Earth observation satellites from companies like Planet Labs, Umbra, and HawkEye 360; GPS; miniature CubeSats for education and research; and military/defense satellites.

Not visible in the next 10 days
Identifier
65841, 2025-221U
Orbit
Decayed
Country
Flag of USUS
Related business
Manufacturer
SpaceX/Seattle
Mission
Decayed Commercial Communications
Bus & Motor
STARLINK V2MO, Unknown motor
Mass
575 kg wet, ~530 kg dry
Launch date (UTC)
2025-09-29 (9 months ago)
Launch vehicle
FALCON 9
Launch site
Air Force Western Test Range (AFWTR)
Object type
Payload
Rocket body
Debris
Shape & HBR
Box + 2 Pan, 17.7 m
Radar Cross Section
36.964 m², Large (>1 m²)

Expand to show TLE details & history
Last TLE update: 5 months ago

TLE from 5 months ago
0 STARLINK-35238
1 65841U 25221U   26029.17882031  .09360043  11794-4  47700-2 0  9996
2 65841  53.1495 256.0983 0002080 251.8154 108.2659 16.19845975 18906
Epoch: 2026-01-29T04:17Z
TLE epoch observation values (Epoch: 2026-01-29T04:17:30.074Z)
Latitude
-0.00004°
Longitude
63.28772°
Altitude
221.334 km
Speed
7.775 km/s
True Right ascension
17h 04m 23s
True Declination
0° 00' 00"
Sunlit
Object was in daylight at epoch
Visualization orbit readout
Latitude
Unknown
Longitude
Unknown
Altitude
Unknown
Speed
Unknown
Apparent Right ascension
Unknown
Apparent Declination
Unknown
Sunlit
N/A
Visualization observer readout
Local Sidereal Time
07:19:33
Azimuth
Unknown
Elevation
Unknown
Doppler factor
Unknown
Orbital elements
Apogee altitude
221.61 km
Perigee altitude
218.865 km
Semi-major axis
6,598.375 km
Eccentricity
0.00021
Inclination
53.1495°
RAAN
256.0983°
Arg. of periapsis
251.8154°
True anomaly
108.28853°
Mean anomaly
108.2659°
Eccentric anomaly
108.27722°
Mean motion
4.04937 °/min
Orbital period
88.9 mins
BSTAR
0.00477
Loading maneuver chart data...
Computing Atmospheric mass density...
Loading historical data...
Loading historical data...
Loading historical data...
Loading historical data...
Loading historical data...
Loading historical data...
Loading historical data...

Documentation

Showing up to 5 results
|